STAR ONE D1

Last updated on Fri Jun 19 2026 20:04:16 GMT+0000 (Coordinated Universal Time)

1 41904U 16082B 26170.51990204 -.00000217 00000+0 00000+0 0 9990 2 41904 0.0159 16.8181 0002229 91.3553 262.7280 1.00270128 34792
UTC large
Height (km)
Speed (km/s)
/
Latitude / Longitude
Inclination (degrees)
Orbital Period (minutes)
Azimuth
Elevation
Range (km)
Doppler Factor

Next 0 passes for location: London (51.5072 / 0.1276)

Sorry there are no passes over London.
STAR ONE D1